Content
SEND FEEDBACK

Daily
Averages
Monthly
Summary
United States of America

GRAHAM, TEXAS


Home > North America > United States > Texas
Elevation: 1042 feet     Latitude: 33 06N     Longitude: 098 35W

WEATHER
 
SELECT A DAY
Number of Records: 264,041;   Date Range: 5/16/03 - 8/30/14
 
SHARE

PRINT THIS DATA

[ ← Previous Day ]
WEATHER ALMANAC - JANUARY 23, 2013
[ Next Day → ]
[ °C ]   °F
Weather ElementAverageHighLow
Temperature58.9 °F75.2 °F (2:55 pm)42.8 °F (7:35 am)
Dewpoint47 °F51.8 °F (11:35 am)42.8 °F (12:35 am)
Humidity68.7 %100 % (3:35 am)34 % (4:55 pm)
Barometer30.16 in30.24 in (9:55 am)30.09 in (7:15 pm)
Wind Speed4.4 mph10.4 mph (11:55 am)
Weather ElementAverage
Visibility9.9 mi
Wind DirectionSE (133.4 °)

Weather ElementTotal
Precipitation---
Heating Degree Days6 (Base 65)
Growing Degree Days9 (Base 50)
Averaged from 71 records on January 23, 2013
WEATHER CONDITIONS BREAKOUT
WIND DIRECTION BREAKOUT
WEATHER BY HOUR - JANUARY 23, 2013
[ °C ]   °F
Local TimeTemperatureDewpointHumidityBarometerVisibilityWind DirectionWind SpeedGust SpeedPrecipitationEventsConditions
12:35 AM51.8 °F42.8 °F71 %30.17 in10.0 miSSE (160°)3.5 mphClear
12:55 AM51.8 °F44.6 °F76 %30.17 in10.0 miSSE (160°)3.5 mphClear
1:15 AM51.8 °F44.6 °F76 %30.17 in10.0 miSouth (170°)3.5 mphClear
1:35 AM51.8 °F44.6 °F76 %30.17 in10.0 miSouth (180°)5.8 mphClear
1:55 AM51.8 °F44.6 °F76 %30.17 in10.0 miSouth (180°)5.8 mphClear
2:15 AM51.8 °F44.6 °F76 %30.18 in10.0 miSouth (180°)3.5 mphClear
2:35 AM50.0 °F44.6 °F82 %30.18 in10.0 miCalmClear
2:55 AM50.0 °F44.6 °F82 %30.18 in10.0 miCalmClear
3:15 AM50.0 °F44.6 °F82 %30.18 in10.0 miCalmClear
3:35 AM46.4 °F46.4 °F100 %30.19 in10.0 miCalmClear
3:55 AM44.6 °F44.6 °F100 %30.19 in10.0 miCalmClear
4:15 AM46.4 °F46.4 °F100 %30.19 in10.0 miSSE (150°)3.5 mphClear
4:35 AM46.4 °F46.4 °F100 %30.19 in10.0 miSSE (150°)4.6 mphClear
4:55 AM46.4 °F46.4 °F100 %30.20 in10.0 miSE (140°)3.5 mphClear
5:15 AM48.2 °F48.2 °F100 %30.20 in10.0 miSSE (150°)3.5 mphClear
5:35 AM46.4 °F46.4 °F100 %30.20 in10.0 miSE (130°)3.5 mphClear
5:55 AM44.6 °F44.6 °F100 %30.20 in10.0 miCalmClear
6:15 AM44.6 °F44.6 °F100 %30.21 in10.0 miCalmClear
6:35 AM46.4 °F46.4 °F100 %30.20 in10.0 miSSE (160°)4.6 mphClear
6:55 AM46.4 °F46.4 °F100 %30.20 in10.0 miSouth (170°)4.6 mphClear
7:15 AM46.4 °F46.4 °F100 %30.21 in10.0 miCalmClear
7:35 AM42.8 °F42.8 °F100 %30.21 in10.0 miSSE (160°)3.5 mphClear
7:55 AM44.6 °F44.6 °F100 %30.21 in10.0 miCalmClear
8:15 AM42.8 °F42.8 °F100 %30.21 in10.0 miCalmClear
8:35 AM46.4 °F46.4 °F100 %30.22 in10.0 miCalmClear
8:55 AM51.8 °F50.0 °F94 %30.21 in10.0 miSouth (170°)4.6 mphClear
9:15 AM51.8 °F44.6 °F76 %30.22 in10.0 miSouth (190°)5.8 mphClear
9:35 AM53.6 °F44.6 °F72 %30.23 in10.0 miSouth (190°)5.8 mphClear
9:55 AM57.2 °F46.4 °F67 %30.24 in10.0 miSouth (190°)6.9 mphClear
10:15 AM59.0 °F48.2 °F67 %30.23 in10.0 miSouth (190°)9.2 mphClear
10:35 AM60.8 °F50.0 °F68 %30.24 in10.0 miSouth (190°)6.9 mphClear
10:55 AM62.6 °F50.0 °F63 %30.23 in10.0 miSSW (210°)9.2 mphClear
11:15 AM62.6 °F50.0 °F63 %30.22 in10.0 miSSW (200°)9.2 mphClear
11:35 AM66.2 °F51.8 °F60 %30.22 in10.0 miSouth (190°)8.1 mphClear
11:55 AM68.0 °F51.8 °F56 %30.21 in10.0 miSSW (200°)10.4 mphClear
12:15 PM68.0 °F51.8 °F56 %30.19 in10.0 miSSW (210°)10.4 mphClear
12:35 PM69.8 °F51.8 °F53 %30.19 in10.0 miSSW (200°)6.9 mphClear
12:55 PM69.8 °F50.0 °F49 %30.18 in10.0 miSouth (190°)8.1 mphClear
1:15 PM69.8 °F50.0 °F49 %30.16 in10.0 miSSW (200°)6.9 mphClear
1:35 PM71.6 °F50.0 °F46 %30.16 in10.0 miSSW (210°)4.6 mphClear
1:55 PM71.6 °F50.0 °F46 %30.15 in10.0 miSSE (160°)6.9 mphClear
2:15 PM73.4 °F50.0 °F44 %30.14 in10.0 miSouth (190°)4.6 mphClear
2:35 PM73.4 °F48.2 °F41 %30.13 in10.0 miSSE (150°)6.9 mphClear
2:55 PM75.2 °F48.2 °F38 %30.12 in10.0 miSSW (210°)9.2 mphClear
3:15 PM75.2 °F46.4 °F36 %30.12 in10.0 miSouth (190°)5.8 mphClear
3:35 PM75.2 °F46.4 °F36 %30.11 in10.0 miSSW (200°)9.2 mphClear
3:55 PM75.2 °F46.4 °F36 %30.11 in10.0 miSSW (200°)9.2 mphClear
4:15 PM75.2 °F46.4 °F36 %30.11 in7.0 miSSW (200°)8.1 mphClear
4:35 PM75.2 °F46.4 °F36 %30.10 in7.0 miSSW (200°)6.9 mphClear
4:55 PM75.2 °F44.6 °F34 %30.10 in10.0 miSouth (190°)8.1 mphClear
5:15 PM73.4 °F44.6 °F36 %30.11 in10.0 miSouth (190°)3.5 mphClear
5:35 PM71.6 °F44.6 °F38 %30.11 in10.0 miSouth (170°)3.5 mphClear
5:55 PM71.6 °F44.6 °F38 %30.10 in10.0 miSouth (170°)3.5 mphClear
6:15 PM69.8 °F46.4 °F43 %30.10 in10.0 miSouth (170°)3.5 mphClear
6:35 PM64.4 °F46.4 °F52 %30.10 in10.0 miSE (130°)5.8 mphClear
6:55 PM64.4 °F46.4 °F52 %30.10 in10.0 miSE (140°)5.8 mphClear
7:15 PM64.4 °F48.2 °F56 %30.09 in10.0 miSSE (150°)6.9 mphClear
7:35 PM64.4 °F48.2 °F56 %30.09 in10.0 miSSE (150°)4.6 mphClear
7:55 PM62.6 °F48.2 °F59 %30.09 in10.0 miSSE (160°)4.6 mphClear
8:15 PM62.6 °F48.2 °F59 %30.09 in10.0 miSSE (160°)4.6 mphClear
8:35 PM62.6 °F48.2 °F59 %30.10 in10.0 miSouth (170°)4.6 mphClear
8:55 PM62.6 °F48.2 °F59 %30.10 in10.0 miCalmClear
9:15 PM55.4 °F46.4 °F72 %30.11 in10.0 miCalmClear
9:35 PM55.4 °F46.4 °F72 %30.12 in10.0 miCalmClear
9:55 PM57.2 °F46.4 °F67 %30.12 in10.0 miEast (90°)3.5 mphClear
10:15 PM55.4 °F46.4 °F72 %30.12 in10.0 miSE (130°)3.5 mphClear
10:35 PM59.0 °F48.2 °F67 %30.11 in10.0 miSSE (150°)4.6 mphClear
10:55 PM59.0 °F48.2 °F67 %30.12 in10.0 miCalmClear
11:15 PM55.4 °F48.2 °F77 %30.12 in10.0 miSE (130°)3.5 mphClear
11:35 PM55.4 °F48.2 °F77 %30.11 in10.0 miSSE (150°)4.6 mphClear
11:55 PM55.4 °F50.0 °F82 %30.11 in10.0 miCalmClear
Hourly data recorded from KRPH, located miles away from Graham, Texas







STORIES FROM OUR PARTNERS